Showing default

QIANFAN-19, 61552

Orbit data source: Space-Track

QIANFAN-19, 61552 is a Chinese payload satellite in LEO that was launched on Tue, 15 Oct 2024 UTC via a CHANG ZHENG 6A launch vehicle from the Taiyaun Space Center, China (TSC). Payload-class satellites include a variety of spacecraft equipped with specific instruments for various scientific and technological missions. These include communications satellites like Starlink; space stations such as the ISS; scientific satellites like the Hubble; Earth observation satellites from companies like Planet Labs, Umbra, and HawkEye 360; GPS; miniature CubeSats for education and research; and military/defense satellites.

Loading next visibility...
Identifier
61552, 2024-185A
Orbit
LEO
Country
Flag of CNCN / PRC
Related business
Manufacturer
GESIH/SECM
Mission
Partially operational Commercial Communications
Bus & Motor
QIANFAN, Unknown motor
Mass
267 kg wet, ~267 kg dry
Launch date (UTC)
2024-10-15 (2 years ago)
Launch vehicle
CHANG ZHENG 6A
Launch site
Taiyaun Space Center, China (TSC)
Object type
Payload
Rocket body
Debris
Shape & HBR
Box + 1 Pan, 5.0 m
Radar Cross Section
13.200 m², Large (>1 m²)

Expand to show TLE details & history
Last TLE update: 16 hours ago

TLE from 16 hours ago
0 QIANFAN-19
1 61552U 24185A   26235.55934215  .00000364  00000-0  18248-3 0  9990
2 61552  88.9814  48.8553 0006053 190.3384 169.7680 14.14515796105549
Epoch: 2026-08-23T13:25Z
TLE epoch observation values (Epoch: 2026-08-23T13:25:27.161Z)
Latitude
0.00001°
Longitude
-124.36153°
Altitude
851.308 km
Speed
7.425 km/s
True Right ascension
03h 15m 25s
True Declination
0° 00' 00"
Sunlit
Object was in daylight at epoch
Visualization orbit readout
Latitude
Unknown
Longitude
Unknown
Altitude
Unknown
Speed
Unknown
Apparent Right ascension
Unknown
Apparent Declination
Unknown
Sunlit
N/A
Visualization observer readout
Local Sidereal Time
20:47:03
Azimuth
Unknown
Elevation
Unknown
Doppler factor
Unknown
Orbital elements
Apogee altitude
845.289 km
Perigee altitude
836.549 km
Semi-major axis
7,219.056 km
Eccentricity
0.00061
Inclination
88.9814°
RAAN
48.8553°
Arg. of periapsis
190.3384°
True anomaly
169.78031°
Mean anomaly
169.768°
Eccentric anomaly
169.77416°
Mean motion
3.53853 °/min
Orbital period
101.74 mins
BSTAR
0.00018248
Loading maneuver chart data...
Computing Atmospheric mass density...
Loading historical data...
Loading historical data...
Loading historical data...
Loading historical data...
Loading historical data...
Loading historical data...
Loading historical data...

Documentation

Showing up to 5 results
|